This is the latest recevied weather packets stored in our database for station/object OK1OBR-13. If no packets are shown the sender has not sent any weather packets the latest 1 day(s).
| Time | Temp. | Humidity | Pressure | Rain* | Wind** | Luminosity | Snow |
|---|---|---|---|---|---|---|---|
| 1777958161 | 13.89° C | 54% | 931.1 hPa | 0 mm | 0.89 m/s, 139° | - | - |
| 1777958101 | 13.89° C | 54% | 931 hPa | 0 mm | 0.89 m/s, 149° | - | - |
| 1777958042 | 13.89° C | 54% | 931 hPa | 0 mm | 0.89 m/s, 152° | - | - |
| 1777957981 | 13.89° C | 54% | 931.1 hPa | 0 mm | 0.89 m/s, 155° | - | - |
| 1777957921 | 13.33° C | 55% | 931 hPa | 0 mm | 0.89 m/s, 144° | - | - |
| 1777957861 | 13.33° C | 54% | 931.2 hPa | 0 mm | 0.89 m/s, 127° | - | - |
| 1777957802 | 13.33° C | 55% | 931 hPa | 0 mm | 0.45 m/s, 170° | - | - |
| 1777957741 | 13.33° C | 55% | 931.1 hPa | 0 mm | 0.89 m/s, 147° | - | - |
| 1777957681 | 13.33° C | 56% | 931 hPa | 0 mm | 0.89 m/s, 146° | - | - |
| 1777957621 | 13.33° C | 56% | 931.1 hPa | 0 mm | 0.45 m/s, 153° | - | - |
| 1777957561 | 13.33° C | 55% | 931 hPa | 0 mm | 0.89 m/s, 163° | - | - |
| 1777957501 | 13.33° C | 55% | 931.1 hPa | 0 mm | 0.89 m/s, 151° | - | - |
| 1777957441 | 13.33° C | 55% | 931.2 hPa | 0 mm | 0.89 m/s, 157° | - | - |
| 1777957381 | 13.33° C | 56% | 930.9 hPa | 0 mm | 0.45 m/s, 142° | - | - |
| 1777957321 | 13.33° C | 55% | 930.9 hPa | 0 mm | 0.45 m/s, 153° | - | - |
| 1777957261 | 13.33° C | 54% | 931.2 hPa | 0 mm | 0.89 m/s, 145° | - | - |
| 1777957201 | 13.33° C | 54% | 931.1 hPa | 0 mm | 0.89 m/s, 145° | - | - |
| 1777957141 | 13.33° C | 55% | 931 hPa | 0 mm | 0.89 m/s, 149° | - | - |
| 1777957081 | 13.89° C | 55% | 930.9 hPa | 0 mm | 0.45 m/s, 156° | - | - |
| 1777957022 | 13.89° C | 54% | 931.1 hPa | 0 mm | 0.89 m/s, 143° | - | - |
| 1777956962 | 13.33° C | 54% | 931.2 hPa | 0 mm | 0.45 m/s, 144° | - | - |
| 1777956901 | 13.33° C | 54% | 931.2 hPa | 0 mm | 0.89 m/s, 144° | - | - |
| 1777956841 | 13.33° C | 55% | 931.1 hPa | 0 mm | 0.89 m/s, 149° | - | - |
| 1777956783 | 13.33° C | 55% | 931.2 hPa | 0 mm | 0.45 m/s, 140° | - | - |
| 1777956720 | 13.33° C | 56% | 931.1 hPa | 0 mm | 0.45 m/s, 159° | - | - |
* Rain since midnight (hover to see other rain measurements)
** Current wind speed in m/s (hover to see current wind gust speed)